Weather History for Palm Springs, CA

Change the Weather History Date:

Tuesday, September 30, 2014

  Actual Average Record
Temperature  
Mean Temperature 82 °F 81 °F  
Max Temperature 96 °F 95 °F 112 °F (1980)
Min Temperature 68 °F 68 °F 46 °F (1930)
Degree Days  
Heating Degree Days 0 0  
Month to date heating degree days 0 0  
Since 1 July heating degree days 0 0  
Cooling Degree Days 17 16  
Month to date cooling degree days 761 642  
Year to date cooling degree days 4358 3726  
Growing Degree Days 33 (Base 50)    
Moisture  
Dew Point 40 °F    
Average Humidity 27    
Maximum Humidity 44    
Minimum Humidity 10    
Precipitation  
Precipitation 0.00 in 0.00 in 0.50 in (1946)
Month to date precipitation 0.04 0.36  
Year to date precipitation 1.94 3.89  
Since 1 July precipitation 1.19 0.95  
Snow  
Snow 0.00 in - - ()
Month to date snowfall 0.0  
Year to date snowfall 0.0  
Since 1 July snowfall 0.0  
Snow Depth 0.00 in    
Sea Level Pressure  
Sea Level Pressure 29.80 in    
Wind  
Wind Speed 6 mph (NNW)    
Max Wind Speed 12 mph    
Max Gust Speed 14 mph    
Visibility 10 miles    
Events      
T = Trace of Precipitation, MM = Missing Value Source: NWS Daily Summary

Daily Weather History Graph

Daily Weather History Graph

Search for Another Location

Airport:

Trip Planner

Search our weather history database for the weather conditions in past years. The results will help you decide how hot, cold, wet, or windy it might be!

Date:

Astronomy

Sep. 30, 2014 Rise Set
Actual Time 6:39 AM PDT 6:31 PM PDT
Civil Twilight 6:14 AM PDT 6:56 PM PDT
Nautical Twilight 5:45 AM PDT 7:25 PM PDT
Astronomical Twilight 5:16 AM PDT 7:54 PM PDT
Moon 12:39 PM PDT (9/30) 11:18 PM PDT (9/30)
Length of Visible Light 12h 41m
Length of Day
11h 51m
Waxing Crescent, 39% of the Moon is Illuminated
Sep 30
Waxing Crescent
Oct 1
First Quarter
Oct 8
Full
Oct 15
Last Quarter
Oct 23
New

Hourly Weather History & Observations

Time (PDT) Temp. Dew Point Humidity Pressure Visibility Wind Dir Wind Speed Gust Speed Precip Events Conditions
12:53 AM 78.1 °F 44.1 °F 30% 29.86 in 10.0 mi NNW 4.6 mph - N/A   Clear
1:53 AM 73.9 °F 45.0 °F 35% 29.85 in 10.0 mi NW 8.1 mph - N/A   Clear
2:53 AM 73.9 °F 44.1 °F 34% 29.84 in 10.0 mi NW 8.1 mph - N/A   Clear
3:53 AM 72.0 °F 44.1 °F 37% 29.84 in 10.0 mi NW 5.8 mph - N/A   Clear
4:53 AM 70.0 °F 46.0 °F 42% 29.84 in 10.0 mi Calm Calm - N/A   Clear
5:53 AM 72.0 °F 43.0 °F 35% 29.84 in 10.0 mi NNW 9.2 mph - N/A   Clear
6:53 AM 72.0 °F 42.1 °F 34% 29.85 in 10.0 mi NW 8.1 mph - N/A   Clear
7:53 AM 75.0 °F 42.1 °F 31% 29.85 in 10.0 mi NW 6.9 mph - N/A   Clear
8:53 AM 80.1 °F 39.9 °F 24% 29.86 in 10.0 mi NW 5.8 mph - N/A   Clear
9:53 AM 84.0 °F 42.1 °F 23% 29.85 in 10.0 mi Calm Calm - N/A   Clear
10:53 AM 88.0 °F 36.0 °F 16% 29.84 in 10.0 mi SE 3.5 mph - N/A   Clear
11:53 AM 91.0 °F 37.0 °F 15% 29.82 in 10.0 mi Variable 6.9 mph - N/A   Clear
12:53 PM 93.0 °F 34.0 °F 12% 29.79 in 10.0 mi East 5.8 mph - N/A   Clear
1:53 PM 95.0 °F 30.9 °F 10% 29.75 in 10.0 mi North 5.8 mph - N/A   Clear
2:53 PM 95.0 °F 34.0 °F 12% 29.72 in 10.0 mi SE 8.1 mph - N/A   Clear
3:53 PM 95.0 °F 34.0 °F 12% 29.70 in 10.0 mi SE 10.4 mph - N/A   Clear
4:53 PM 96.1 °F 34.0 °F 11% 29.68 in 10.0 mi ESE 10.4 mph - N/A   Clear
5:53 PM 93.0 °F 35.1 °F 13% 29.68 in 10.0 mi SE 8.1 mph - N/A   Clear
6:53 PM 89.1 °F 42.1 °F 19% 29.69 in 10.0 mi East 8.1 mph - N/A   Clear
7:53 PM 86.0 °F 39.9 °F 20% 29.71 in 10.0 mi Calm Calm - N/A   Clear
8:53 PM 84.0 °F 41.0 °F 22% 29.71 in 10.0 mi SW 4.6 mph - N/A   Clear
9:53 PM 79.0 °F 46.0 °F 31% 29.85 in 10.0 mi Calm Calm - N/A   Clear
10:53 PM 81.0 °F 45.0 °F 28% 29.86 in 10.0 mi NW 3.5 mph - N/A   Clear
11:53 PM 79.0 °F 41.0 °F 26% 29.86 in 10.0 mi NW 3.5 mph - N/A   Clear